Weather History for Svalbard, Norway

Change the Weather History Date:

Sunday, December 9, 2012

  Actual Average Record
Temperature  
Mean Temperature 32 °F -  
Max Temperature 37 °F 17 °F 39 °F (2005)
Min Temperature 26 °F 7 °F -2 °F (1997)
Degree Days  
Heating Degree Days 34    
Moisture  
Dew Point 27 °F    
Average Humidity 77    
Maximum Humidity 93    
Minimum Humidity 57    
Precipitation  
Precipitation 0.00 in 0.02 in - ()
Sea Level Pressure  
Sea Level Pressure 30.11 in    
Wind  
Wind Speed 13 mph ()    
Max Wind Speed 27 mph    
Max Gust Speed 30 mph    
Visibility 6.6 miles    
Events Rain , Snow    
Averages and records for this station are not official NWS values.
T = Trace of Precipitation, MM = Missing Value Source: Averaged Metar Reports

Daily Weather History Graph

Daily Weather History Graph

Search for Another Location

Airport:

Trip Planner

Search our weather history database for the weather conditions in past years. The results will help you decide how hot, cold, wet, or windy it might be!

Date:

Astronomy

Jan. 01, 1970 Rise Set
Actual Time Sun does not rise Sun does not rise
Civil Twilight Sun does not rise Sun does not rise
Nautical Twilight 10:17 AM CET 1:22 PM CET
Astronomical Twilight 7:19 AM CET 4:20 PM CET
Moon 6:24 AM CET (12/9) 9:01 AM CET (12/9)
Length of Visible Light 0h 00m
Length of Day
0h 00m
Waning Crescent, 21% of the Moon is Illuminated
Dec 9
Waning Crescent
Dec 13
New
Dec 20
First Quarter
Dec 28
Full
Jan 5
Last Quarter

Hourly Weather History & Observations

Time (CET) Temp. Windchill Dew Point Humidity Pressure Visibility Wind Dir Wind Speed Gust Speed Precip Events Conditions
12:50 AM 32.0 °F 18.6 °F 23.0 °F 69% 30.27 in 6.2 mi ESE 25.3 mph - N/A Snow Low Drifting Snow
1:00 AM 31 °F - 23 °F 64% 30.28 in 19 mi ESE 26.8 mph - - Snow Low Drifting Snow
1:50 AM 32.0 °F 20.5 °F 23.0 °F 69% 30.24 in 6.2 mi SE 18.4 mph 29.9 mph N/A   Mostly Cloudy
2:50 AM 32.0 °F 20.5 °F 23.0 °F 69% 30.21 in 6.2 mi SE 18.4 mph - N/A   Mostly Cloudy
3:50 AM 32.0 °F 20.8 °F 24.8 °F 75% 30.18 in 6.2 mi SE 17.3 mph - N/A   Mostly Cloudy
4:50 AM 33.8 °F 22.5 °F 24.8 °F 70% 30.15 in 6.2 mi SE 19.6 mph - N/A   Mostly Cloudy
5:50 AM 33.8 °F 23.5 °F 24.8 °F 70% 30.12 in 6.2 mi SE 16.1 mph - N/A   Mostly Cloudy
6:50 AM 33.8 °F 23.5 °F 24.8 °F 70% 30.09 in 6.2 mi SE 16.1 mph - N/A   Mostly Cloudy
7:00 AM 34 °F - 24 °F 57% 30.11 in 31 mi SE 15.7 mph - -   Partly Cloudy
7:50 AM 33.8 °F 24.3 °F 24.8 °F 70% 30.06 in 6.2 mi SE 13.8 mph - N/A Rain Light Rain
8:50 AM 33.8 °F 24.8 °F 26.6 °F 75% 30.06 in 6.2 mi SSE 12.7 mph - N/A   Mostly Cloudy
9:50 AM 33.8 °F 26.4 °F 26.6 °F 75% 30.06 in 6.2 mi SE 9.2 mph - N/A   Mostly Cloudy
10:50 AM 32.0 °F 23.6 °F 26.6 °F 80% 30.06 in 6.2 mi SE 10.4 mph - N/A   Mostly Cloudy
11:50 AM 32.0 °F 23.6 °F 26.6 °F 80% 30.06 in 6.2 mi SE 10.4 mph - N/A   Mostly Cloudy
12:50 PM 32.0 °F 24.8 °F 26.6 °F 80% 30.06 in 6.2 mi ESE 8.1 mph - N/A   Mostly Cloudy
1:00 PM 32 °F - 27 °F 76% 30.09 in 31 mi ESE 8.9 mph - -   Partly Cloudy
1:50 PM 32.0 °F 27.5 °F 26.6 °F 80% 30.06 in 6.2 mi SE 4.6 mph - N/A   Mostly Cloudy
3:02 PM 35.6 °F 27.5 °F 26.6 °F 70% 30.06 in 6.2 mi SSE 11.5 mph - N/A   Mostly Cloudy
3:50 PM 35.6 °F 28.0 °F 26.6 °F 70% 30.06 in 6.2 mi South 10.4 mph - N/A   Mostly Cloudy
4:50 PM 35.6 °F - 26.6 °F 70% 30.06 in 6.2 mi Variable 2.3 mph - N/A   Scattered Clouds
5:50 PM 33.8 °F 30.8 °F 28.4 °F 81% 30.06 in 6.2 mi NNW 3.5 mph - N/A Snow Light Snow
6:50 PM 32.0 °F 27.5 °F 30.2 °F 93% 30.09 in 6.2 mi West 4.6 mph - N/A Snow Light Snow
7:00 PM 32 °F - 30 °F 88% 30.10 in 13 mi West 4.5 mph - - Snow Light Snow
7:50 PM 32.0 °F 27.5 °F 30.2 °F 93% 30.09 in 6.2 mi West 4.6 mph - N/A Snow Light Snow
8:50 PM 32.0 °F 24.2 °F 30.2 °F 93% 30.09 in 3.1 mi West 9.2 mph - N/A Snow Light Snow
9:50 PM 32.0 °F 24.2 °F 30.2 °F 93% 30.09 in 3.7 mi WSW 9.2 mph - N/A Snow Light Snow
10:50 PM 32.0 °F 23.6 °F 30.2 °F 93% 30.09 in 4.3 mi West 10.4 mph - N/A Snow Light Snow
11:50 PM 32.0 °F 24.8 °F 30.2 °F 93% 30.12 in 3.7 mi West 8.1 mph - N/A Snow Light Snow